RH
11 13 20 27 32 36 40 39 33 27 22 12 5 4 4 4 3 2 2 2 2 2 3 3 4 4 4 5 4 4 4 3 3 4 3 4 4 4 5 5 5 5 5 6 5 6 6 6 6 6 6 6 6 6 6 6 6 6 8 9 11 11 9 8 8 8 8 8 8 8 8 7 7 7 7 7 7 6 6 6 7 7 8 8 8 9 9 9
14 16 26 36 36 36 43 44 37 33 34 29 16 5 4 4 2 2 2 2 2 2 3 4 4 5 5 4 4 4 3 3 3 4 4 4 5 5 5 5 5 5 5 6 6 6 6 6 6 6 6 6 6 6 7 7 7 7 8 8 9 9 9 8 8 8 8 8 8 8 7 7 7 7 7 8 7 6 6 7 8 8 9 9 10 10 10 10
18 17 23 32 29 29 42 47 43 42 41 42 32 14 9 8 4 2 2 2 3 3 3 4 5 4 5 4 4 4 3 4 3 4 5 5 5 5 5 5 5 5 6 6 6 6 6 7 6 6 6 6 7 6 7 7 8 8 8 8 8 8 8 8 8 8 8 8 8 8 8 7 7 7 7 7 7 6 7 8 9 10 10 11 11 11 11 11
20 17 18 26 28 27 39 47 48 48 44 44 42 28 16 10 6 3 3 4 4 5 5 4 5 4 5 5 4 4 3 3 4 4 5 5 5 5 5 5 6 5 6 6 6 7 6 7 6 7 7 6 7 7 7 7 7 8 8 8 8 8 8 9 9 9 8 8 8 8 7 8 8 7 8 7 7 7 8 9 10 11 12 12 13 13 13 13
27 18 18 24 26 27 36 44 48 50 45 45 46 37 21 7 3 3 3 5 5 5 5 5 5 5 4 4 4 4 4 4 4 5 5 5 5 5 5 5 6 6 6 6 6 7 6 7 7 7 7 7 7 7 8 7 7 8 8 8 8 8 8 9 9 9 9 8 8 8 8 8 9 8 8 8 8 8 8 9 11 12 14 14 14 14 14 15
35 22 20 23 19 24 35 38 42 45 43 46 45 33 18 8 2 3 4 4 5 5 5 5 4 5 4 5 5 6 7 5 4 5 5 6 6 6 6 6 6 6 6 6 6 7 7 7 7 7 7 8 8 8 8 8 8 8 8 8 8 8 8 9 9 10 10 9 9 9 9 9 10 10 8 9 9 9 9 10 12 14 15 16 16 16 16 16
40 29 23 23 17 20 32 34 38 42 41 45 43 26 14 9 3 3 5 5 6 6 6 5 5 6 6 6 6 6 6 5 5 6 6 6 7 6 6 6 6 6 6 6 6 7 7 7 7 7 7 8 8 8 8 8 8 9 9 8 8 9 9 9 9 10 10 10 11 10 10 10 10 11 10 10 9 9 10 10 12 15 17 18 18 18 18 18
40 39 26 23 24 21 26 32 39 45 39 41 44 27 12 7 3 3 5 6 6 6 6 6 6 6 6 6 5 5 4 5 6 6 7 7 7 7 7 7 6 7 7 6 7 7 7 7 7 7 8 8 9 9 9 9 9 9 9 9 9 10 9 10 10 10 11 12 12 11 10 11 11 12 11 11 10 10 10 11 12 15 18 20 20 20 19 19
36 43 32 24 29 26 22 26 36 44 38 42 46 27 10 5 3 4 4 6 6 5 6 5 5 5 5 5 4 5 5 6 6 6 7 7 7 7 7 7 7 7 7 7 7 7 8 8 8 7 8 9 9 10 10 9 9 9 10 10 11 11 11 11 11 12 12 13 13 12 12 11 12 12 12 12 12 11 11 12 13 16 20 21 22 21 21 21
35 43 39 28 31 28 23 24 34 42 42 48 40 14 4 4 2 5 4 6 6 5 5 4 5 5 5 5 5 5 6 6 7 7 7 7 7 7 7 7 7 7 7 8 7 8 8 8 8 8 9 9 9 10 10 10 9 10 10 11 12 12 12 12 13 13 13 14 13 13 12 11 12 12 13 13 12 11 12 13 13 16 20 23 23 23 23 23
39 42 42 33 32 29 26 30 34 40 46 45 25 2 2 4 3 6 5 6 6 5 5 5 5 5 5 5 5 6 6 7 7 7 8 7 7 7 7 7 7 8 8 8 8 8 8 8 8 8 9 10 10 10 10 10 10 10 11 11 12 13 13 14 14 15 14 15 14 13 12 12 13 13 13 13 12 11 12 14 14 16 20 24 25 25 25 24
43 44 42 33 35 34 32 35 34 41 48 33 9 1 4 2 4 6 6 6 5 5 5 5 5 5 5 5 6 7 7 8 7 8 8 7 8 7 8 8 8 8 8 8 8 9 9 8 9 9 10 10 11 11 11 11 11 11 12 12 14 14 14 16 16 16 16 16 14 14 14 13 14 14 13 13 12 12 13 15 15 16 21 25 26 27 27 27
44 44 42 31 34 40 37 35 37 48 52 30 4 2 4 1 4 5 6 6 5 6 5 5 6 5 6 6 6 7 7 8 8 8 8 7 8 7 8 8 9 8 8 9 8 9 9 9 10 9 11 11 12 12 12 13 12 12 13 14 15 15 16 18 19 19 18 17 16 17 16 13 14 15 14 14 14 14 14 16 16 17 21 26 29 29 30 30
42 41 41 33 32 39 37 31 37 52 54 33 7 1 3 2 4 5 6 6 5 6 5 5 6 5 6 6 7 8 8 9 8 8 8 8 8 8 9 8 9 9 9 9 9 10 10 10 11 10 11 12 13 13 13 14 14 14 15 16 17 18 19 20 22 22 21 20 18 20 18 14 15 15 16 16 16 16 16 17 17 17 21 28 32 32 33 32
42 38 38 39 37 33 27 20 31 50 45 23 6 1 4 2 4 6 6 6 5 6 6 6 6 6 7 7 8 8 8 9 8 9 8 8 8 8 9 9 9 10 10 10 10 11 11 11 11 11 12 13 14 14 15 16 16 17 17 18 20 20 21 22 24 24 24 24 22 24 22 16 16 16 17 18 17 17 18 18 18 18 22 30 34 35 36 36
38 38 35 37 40 36 28 18 30 49 34 9 3 3 3 4 5 6 7 6 6 6 6 6 6 6 7 8 9 9 9 9 9 9 9 9 9 9 9 9 10 10 11 11 11 11 12 12 12 12 13 13 15 15 17 18 17 19 20 21 22 22 22 22 24 25 25 25 24 25 23 17 16 17 19 20 19 20 20 20 19 19 22 30 36 37 38 38
30 32 31 30 34 40 41 32 39 52 32 6 3 4 4 6 6 6 7 6 6 7 6 6 6 7 7 8 9 9 9 9 9 9 9 9 9 9 10 10 11 11 11 12 12 12 12 13 12 13 14 14 15 16 18 19 19 21 22 22 23 23 23 22 24 25 25 25 23 24 22 18 17 19 20 21 22 21 21 21 20 20 22 28 34 37 38 38
29 24 23 27 31 36 43 46 50 47 28 9 4 5 6 6 7 7 6 6 7 6 6 6 7 8 8 8 9 9 9 9 10 10 10 10 10 10 10 11 11 11 12 12 12 12 12 13 13 13 15 15 17 17 18 20 20 22 22 23 23 23 23 24 25 25 25 24 24 24 22 18 17 19 21 23 24 22 21 21 20 21 24 28 34 36 37 37
33 23 16 24 28 27 33 42 40 26 13 8 6 7 7 7 7 7 6 7 6 6 7 7 8 11 10 9 9 9 9 10 10 10 10 11 11 11 11 11 12 12 13 13 13 13 13 14 14 14 16 16 18 18 19 20 21 22 22 23 24 23 22 24 26 25 26 25 23 24 22 18 17 20 22 24 24 22 21 21 22 25 27 30 35 35 36 37
36 30 16 16 25 30 28 25 18 9 5 6 7 8 7 7 7 6 7 7 6 7 8 7 9 11 9 9 10 9 10 10 10 10 10 11 11 11 11 12 13 14 14 14 14 14 14 14 15 16 17 17 18 19 20 21 22 23 23 23 24 24 22 23 25 25 28 27 22 23 22 17 18 20 22 23 22 22 23 24 26 29 31 33 35 35 35 35
42 35 16 11 23 32 25 13 9 8 5 5 8 9 8 8 7 7 8 7 8 8 9 10 9 9 9 10 10 10 10 10 10 10 10 11 11 11 12 12 13 14 14 15 15 15 15 15 16 17 17 17 18 20 21 22 23 24 24 24 24 25 23 21 24 26 29 29 24 24 22 17 19 21 21 21 22 24 25 28 31 32 33 34 34 33 33 31
47 38 15 9 18 22 15 9 9 8 5 5 8 9 8 9 10 10 9 8 9 9 10 11 9 8 9 10 10 10 10 10 10 11 10 11 11 11 12 12 13 14 15 15 15 16 16 15 16 16 17 17 19 20 21 22 23 24 25 25 24 25 24 21 23 27 31 31 26 24 23 18 19 21 21 22 24 27 29 30 32 33 32 33 31 31 29 28
49 40 11 6 11 12 16 15 11 8 6 7 8 9 9 10 11 10 8 8 8 8 9 9 8 8 9 10 10 10 10 11 11 10 10 11 11 11 12 12 13 14 15 15 15 16 16 16 16 17 17 18 19 20 22 22 23 26 27 26 24 25 27 25 24 26 29 30 27 26 25 20 19 22 22 24 26 28 30 30 31 31 30 30 29 28 27 26
40 37 19 21 17 10 22 24 15 10 8 8 9 10 10 10 11 9 8 8 8 8 8 7 8 8 9 10 10 11 11 11 11 10 11 12 12 12 12 12 14 14 14 15 15 15 16 17 17 17 17 18 19 21 23 23 24 26 27 26 26 26 28 29 28 28 27 28 27 27 26 21 19 23 23 24 28 29 28 29 29 28 26 26 26 26 26 24
30 41 40 41 23 8 19 21 14 11 9 11 11 10 11 10 10 9 8 9 8 8 7 7 8 8 9 10 10 11 11 10 10 10 11 12 12 12 12 13 13 13 14 15 15 15 16 17 17 17 18 18 20 21 23 24 23 24 26 26 26 27 28 28 29 30 28 28 27 28 34 31 20 22 25 25 28 29 27 26 27 26 24 24 24 24 24 23
25 40 38 29 16 10 15 13 12 13 12 13 12 11 11 10 10 10 10 10 8 8 7 8 9 9 9 9 10 11 12 12 11 11 12 12 12 13 13 13 14 13 14 15 15 15 15 17 17 18 18 18 20 22 24 25 24 25 25 25 27 28 28 28 30 32 31 31 29 29 38 38 23 20 25 25 27 28 26 25 25 25 24 23 22 22 22 22
17 24 19 14 13 14 13 12 14 14 14 14 12 12 11 11 12 10 12 13 10 8 7 8 9 11 12 11 11 11 12 12 11 11 12 12 13 13 13 13 14 14 14 15 15 15 16 17 17 18 19 19 21 23 24 25 27 27 26 26 28 27 28 29 29 31 33 32 31 29 34 39 30 21 23 26 27 28 26 24 24 23 23 21 21 22 22 22
13 14 13 14 14 13 13 12 13 13 14 14 12 12 11 12 13 10 13 15 12 10 8 9 9 11 13 12 11 12 12 11 11 12 12 12 13 13 13 13 14 14 14 15 15 15 16 16 17 18 19 20 21 23 25 27 28 28 28 28 28 28 29 28 28 32 35 33 33 31 32 40 36 22 23 27 26 27 26 24 23 22 21 21 21 23 25 26
14 14 14 14 13 13 14 12 13 13 14 13 12 13 11 12 12 11 13 14 12 11 10 11 10 10 11 10 10 11 11 11 11 12 11 13 13 12 13 13 14 15 14 15 16 16 17 16 18 19 19 21 22 24 26 27 29 29 30 30 29 30 28 26 30 33 35 37 35 32 33 42 40 23 22 27 25 27 26 23 24 23 23 23 23 25 30 33
15 14 13 14 12 13 12 12 13 12 12 13 12 12 11 12 11 12 15 13 13 13 12 12 11 11 10 9 10 10 10 11 11 12 12 12 13 13 14 13 14 15 14 15 16 16 17 16 18 19 20 22 23 25 27 27 31 30 31 32 30 30 28 29 33 31 38 46 39 32 32 42 46 29 20 26 26 27 26 24 26 26 27 28 27 28 32 38
14 13 12 13 12 13 12 12 12 11 12 12 11 11 11 11 12 15 17 13 13 15 13 12 11 11 11 10 10 9 9 10 10 11 12 12 13 13 13 14 14 15 14 15 16 16 16 16 18 18 20 23 23 25 27 28 31 30 33 34 29 30 29 30 33 30 43 54 41 33 34 42 49 33 20 25 27 28 28 25 26 28 30 31 31 30 31 40
14 14 12 13 13 13 13 12 12 11 11 10 10 11 10 11 12 12 14 11 11 13 12 11 11 10 10 10 9 8 8 9 10 11 11 12 12 12 13 14 15 15 15 16 16 16 15 15 17 19 20 23 24 26 27 29 31 31 34 33 32 40 44 47 49 43 47 49 37 35 40 42 41 28 21 26 27 27 28 25 26 29 31 33 34 32 32 44
14 12 11 13 12 13 13 12 12 10 10 10 10 11 10 12 12 10 11 10 11 13 12 12 11 10 10 9 8 8 8 9 9 10 10 11 11 12 13 14 15 16 16 17 17 17 17 16 17 20 21 22 24 26 27 29 31 32 33 33 35 47 60 69 70 57 49 46 37 40 46 41 31 23 23 26 24 25 26 25 27 28 31 36 35 33 38 50
13 11 11 11 11 13 12 11 11 9 9 9 9 11 11 11 11 10 11 12 12 13 13 12 11 10 10 9 9 8 8 9 9 9 10 11 11 12 13 14 14 16 16 18 19 19 20 20 18 19 21 22 24 26 27 30 32 31 31 33 34 39 48 58 61 53 48 50 46 43 44 37 28 25 25 24 23 24 25 26 28 29 33 37 35 38 48 55
13 11 10 10 10 12 11 10 10 7 8 8 8 11 11 10 10 10 12 13 13 13 12 11 10 10 10 9 9 9 9 10 9 9 10 10 12 12 12 14 14 16 17 18 19 21 23 21 19 20 21 22 25 26 27 29 31 31 31 34 36 37 39 45 50 45 46 61 63 50 40 32 27 27 25 24 23 24 26 27 29 32 35 39 42 50 57 57
11 11 10 10 10 11 10 9 7 6 7 7 8 10 10 10 11 11 13 13 13 13 12 11 10 10 10 9 9 8 9 11 10 10 11 11 12 12 12 14 15 16 18 19 20 22 23 21 20 21 21 23 25 27 27 29 31 32 33 35 37 39 40 43 45 42 51 71 67 45 36 33 30 27 23 24 25 24 27 29 31 36 40 46 54 58 59 59
8 9 9 9 10 10 9 7 6 6 6 7 8 10 10 11 11 12 13 13 12 12 11 11 11 11 11 9 9 9 10 11 11 12 12 12 12 12 13 15 16 17 18 19 22 23 24 23 21 21 22 23 25 26 27 28 30 32 34 36 37 39 42 42 47 54 67 79 65 43 38 38 36 31 22 23 28 27 28 31 32 38 45 53 59 59 60 62
6 7 9 10 10 9 7 6 6 6 7 8 9 9 10 11 11 12 12 12 11 11 10 11 11 11 10 10 10 10 11 12 12 13 13 13 13 13 14 15 16 17 18 20 22 23 25 25 24 23 22 23 25 26 27 27 29 32 33 36 37 40 44 44 50 59 68 77 70 52 43 37 33 31 25 24 29 29 30 32 35 42 51 56 56 55 57 58
6 7 9 10 9 7 6 6 6 6 7 8 8 8 9 9 10 11 11 11 11 10 11 11 11 11 11 10 11 11 12 12 12 13 14 14 14 13 14 16 17 18 19 21 23 24 26 28 27 24 23 24 25 26 27 27 30 33 33 36 38 41 45 46 50 53 59 73 78 68 56 41 28 27 27 27 29 31 34 36 40 46 51 54 52 52 53 52
7 8 9 9 7 6 6 6 7 8 8 8 8 9 9 10 10 10 10 10 10 11 11 11 11 12 11 11 11 11 12 12 12 13 14 14 14 14 15 16 17 19 20 22 23 24 27 29 29 26 24 25 25 26 27 28 32 34 34 37 39 42 45 47 48 46 48 66 81 84 73 45 23 24 28 28 31 34 37 40 43 47 51 51 48 45 42 38
9 8 8 7 6 6 7 7 8 8 8 9 9 9 10 10 10 10 10 10 10 11 11 11 11 12 11 11 11 12 13 13 13 13 14 14 14 15 16 17 17 19 21 22 24 25 26 29 30 27 24 24 24 26 27 27 30 32 34 36 39 44 46 50 56 50 45 54 64 75 73 43 21 26 28 29 34 36 39 42 45 49 49 43 36 31 29 28
8 7 7 7 7 8 8 8 9 9 9 9 9 10 10 10 10 10 10 10 10 10 11 11 11 11 12 12 12 12 13 14 14 14 15 15 15 16 17 17 18 20 21 22 24 24 26 29 29 27 25 26 26 26 25 27 29 31 33 34 37 42 42 47 55 50 46 50 49 61 73 48 23 26 31 33 37 38 42 46 48 47 39 32 31 33 34 34
7 7 8 8 9 9 9 9 9 9 9 9 10 10 10 10 10 10 10 10 11 10 11 11 11 12 12 13 13 13 14 15 16 15 15 15 16 17 17 19 19 20 22 24 24 25 27 30 30 28 26 25 24 24 25 27 30 31 32 34 37 41 41 43 48 45 47 52 48 62 77 49 23 30 36 36 40 43 47 47 44 40 35 35 41 44 45 45
8 9 9 9 9 9 10 10 9 10 10 9 10 10 11 11 10 10 11 11 11 11 11 12 12 13 13 14 14 14 15 16 17 16 16 16 16 17 18 19 20 21 23 24 24 26 28 30 32 33 35 34 31 30 29 29 32 33 35 38 39 41 43 45 47 48 52 51 48 61 68 45 29 36 38 39 45 47 47 45 40 39 39 40 43 43 43 45
9 9 9 10 10 9 10 9 9 9 9 10 10 10 11 11 11 11 11 11 11 12 12 13 13 13 14 15 15 16 16 16 17 17 16 16 17 18 19 19 20 21 23 24 25 27 29 30 30 34 40 44 41 36 32 32 36 38 39 41 42 43 47 48 49 53 55 53 51 56 54 41 36 41 42 45 50 49 46 45 41 39 39 37 36 35 35 37
10 9 10 10 9 9 9 9 9 9 9 10 10 10 10 11 11 11 11 12 12 12 13 13 14 14 15 16 16 16 16 17 18 17 17 18 18 18 19 20 21 22 23 24 26 28 30 30 29 31 34 35 34 30 30 34 37 39 40 41 42 44 48 52 55 56 53 54 56 52 47 45 44 46 48 50 50 48 47 43 38 36 36 34 32 31 31 33
10 9 9 9 8 9 8 8 9 9 9 10 9 10 11 11 11 11 11 12 12 13 14 14 15 16 16 17 17 17 17 18 18 18 17 18 18 19 20 20 21 22 22 24 26 29 31 30 29 31 31 29 28 27 31 37 38 37 37 37 39 43 46 51 54 50 49 57 60 50 46 50 49 49 52 51 47 44 41 37 34 33 33 32 30 30 30 30
9 9 9 8 8 8 8 8 8 8 9 10 10 11 11 12 13 12 12 13 13 14 15 14 16 17 17 18 19 18 19 19 18 18 18 19 19 19 20 20 21 22 23 25 27 29 32 31 29 31 31 28 27 28 32 36 37 35 35 35 39 43 44 47 47 46 52 61 58 50 51 54 51 50 50 46 43 43 40 36 34 33 33 32 31 30 28 27
8 8 7 7 7 7 7 7 8 8 9 10 11 12 13 13 13 14 14 14 14 15 15 16 17 17 18 19 20 20 21 20 20 19 19 20 20 20 21 21 22 23 24 26 27 28 32 33 32 33 33 27 26 30 32 34 36 34 34 38 43 45 45 47 48 50 55 57 52 52 55 54 51 51 48 42 41 44 42 36 33 33 33 32 30 29 27 25
7 7 6 6 6 6 7 7 8 9 11 12 13 13 14 14 14 15 15 15 16 16 16 17 17 18 19 20 20 21 21 21 21 21 21 21 21 21 23 23 23 24 25 26 27 29 32 34 33 35 35 29 27 31 32 35 38 37 36 41 45 47 49 50 50 52 53 54 53 54 56 53 51 51 48 44 43 45 44 37 33 32 32 30 31 31 29 27
6 6 5 5 6 6 7 8 9 11 12 13 14 14 15 15 16 16 16 16 16 16 16 17 17 18 19 20 21 22 21 21 22 21 22 22 22 23 23 23 23 24 25 26 28 29 31 33 33 38 41 34 29 32 35 35 37 37 39 44 47 50 53 53 52 51 51 52 52 54 58 58 52 46 42 40 39 41 42 37 30 28 28 27 29 35 39 40
5 5 5 6 7 8 9 10 12 13 14 15 15 16 16 16 16 17 17 16 17 17 17 18 18 19 20 21 21 22 22 22 22 22 22 22 22 23 23 23 24 24 25 27 28 28 31 34 35 42 47 38 31 37 37 34 37 40 41 46 51 53 55 56 53 48 47 50 54 58 61 57 48 39 35 33 30 30 33 31 27 25 28 27 25 32 43 46
Wind_Speed
11 11 11 11 10 9 9 9 11 12 14 16 16 12 9 8 8 8 10 11 10 9 7 7 7 7 7 6 6 6 6 7 9 9 8 8 8 7 8 8 9 9 8 8 7 6 5 4 3 3 3 3 3 4 5 6 7 7 8 9 10 11 10 11 11 12 12 12 11 11 11 10 10 12 12 13 13 13 14 16 17 18 19 19 19 19 20 20
10 10 10 9 9 8 8 9 9 11 12 13 14 12 8 5 6 7 9 9 8 7 6 7 8 8 8 6 5 5 6 7 9 10 9 8 7 7 7 7 7 8 7 7 7 5 4 4 3 3 4 4 4 5 6 7 7 8 9 10 11 11 11 11 12 12 12 12 12 11 11 11 12 12 13 13 13 14 15 16 18 18 19 19 19 20 20 21
9 9 8 8 8 8 8 8 9 9 8 7 9 11 8 3 3 4 6 7 6 6 6 7 7 8 7 6 5 5 6 7 9 11 9 7 7 7 7 6 6 6 7 6 6 5 4 4 4 4 4 5 4 5 6 7 8 8 9 10 11 12 12 12 12 12 12 13 13 12 12 12 12 13 13 13 14 14 15 17 18 19 20 20 20 20 21 22
8 8 7 8 8 7 7 8 8 7 6 5 6 6 5 3 2 2 4 5 5 5 6 7 7 7 7 6 6 6 6 7 9 10 8 7 7 7 6 6 5 5 5 5 4 4 4 4 4 4 5 5 5 6 6 7 7 9 10 10 11 12 12 12 12 12 13 13 13 13 13 13 12 12 13 14 15 15 16 17 18 19 20 21 21 21 22 22
7 6 6 8 7 7 7 7 8 7 5 4 4 2 1 1 2 4 4 4 5 6 7 8 9 8 8 7 7 7 6 7 9 8 7 6 6 6 6 5 4 4 3 3 3 4 4 4 4 3 5 6 6 6 6 7 8 9 9 9 10 11 12 13 13 14 13 13 14 14 14 14 13 13 13 15 16 16 16 17 18 20 21 22 22 22 22 23
6 6 6 7 7 7 6 5 5 5 5 4 2 3 1 4 7 6 4 4 4 6 7 8 9 8 8 7 7 6 5 5 7 8 7 7 7 6 5 4 4 3 3 3 3 4 5 5 4 4 5 6 6 6 6 7 8 9 9 10 10 11 12 13 14 15 14 14 14 15 15 15 14 13 15 17 16 16 17 17 18 20 22 22 23 23 23 23
6 6 5 5 7 6 4 3 3 3 6 3 1 3 2 8 10 7 5 4 5 6 7 7 7 6 5 5 5 5 5 6 7 7 7 7 7 6 5 4 4 4 4 3 3 4 6 6 5 4 5 6 6 6 6 7 8 8 9 9 10 11 13 14 15 15 16 16 16 16 16 16 16 16 17 17 17 18 18 18 19 20 22 23 23 24 24 24
7 6 5 4 5 5 3 3 4 4 5 1 5 5 6 10 11 7 5 5 5 6 7 7 7 6 6 5 5 7 7 7 7 6 7 6 6 6 5 4 4 4 5 4 4 5 6 6 4 4 5 6 6 7 7 8 8 8 8 9 10 11 12 13 14 16 18 18 18 18 18 18 17 19 19 17 17 19 18 18 19 20 22 23 24 24 25 25
9 7 6 5 4 4 3 2 3 3 1 2 7 9 8 9 8 6 5 6 6 7 7 7 8 7 7 6 7 8 7 6 6 6 6 5 5 5 5 4 3 4 4 5 5 5 6 6 5 5 5 5 7 8 9 8 9 8 8 9 10 11 12 13 15 17 18 19 20 20 20 20 19 22 20 17 18 18 18 19 19 20 22 23 24 25 25 25
11 8 7 7 4 4 3 2 1 2 1 6 9 9 8 7 6 5 6 7 7 7 7 7 8 8 7 7 7 6 6 6 5 5 5 4 5 5 4 3 3 3 3 4 5 5 6 6 6 6 5 5 7 9 9 8 9 9 9 10 11 12 13 15 16 17 18 20 22 23 23 22 22 24 21 17 18 18 18 20 19 20 22 24 24 25 25 26
12 10 8 9 7 5 3 1 1 2 2 7 8 8 7 5 4 5 7 8 8 8 8 8 8 7 7 7 7 5 5 5 4 4 4 4 4 4 3 3 4 3 4 4 5 5 6 6 6 6 5 5 8 9 9 8 10 10 10 12 13 14 15 18 19 19 20 22 24 24 25 24 22 23 20 17 17 18 20 20 19 21 22 24 25 25 26 25
13 11 8 9 10 7 4 3 2 2 4 7 7 7 6 4 4 6 7 8 8 9 9 8 8 7 6 6 6 5 4 4 4 4 4 4 4 3 3 5 5 4 4 4 5 6 6 6 6 6 6 6 8 8 8 9 11 11 11 12 14 15 17 19 20 21 23 24 25 25 25 22 18 19 20 18 17 19 21 20 20 21 22 24 25 25 26 25
12 12 9 9 10 9 7 5 3 3 5 7 7 7 6 5 6 7 8 9 9 9 9 8 7 6 5 5 4 4 3 3 4 4 4 4 4 3 4 5 5 4 4 5 5 6 6 6 6 6 6 7 8 9 9 10 10 11 12 12 14 16 17 18 21 23 25 25 25 24 25 21 16 18 19 18 19 20 21 20 20 20 21 24 25 26 26 26
12 11 10 9 9 8 7 6 3 4 6 8 8 7 6 6 7 8 9 10 9 9 9 8 8 6 5 4 3 3 3 3 3 4 4 4 3 3 3 4 4 5 5 5 6 6 6 6 6 7 7 8 8 9 10 9 9 11 12 12 14 16 17 18 20 23 23 23 25 24 25 23 16 17 20 20 21 21 21 21 21 20 21 23 25 26 26 26
11 10 9 10 8 6 5 4 4 5 7 9 9 7 6 7 8 9 10 10 10 9 9 9 8 7 6 4 3 3 2 3 3 3 4 4 3 3 3 4 4 6 7 6 6 6 7 6 7 7 8 9 9 10 10 8 9 11 12 12 14 16 17 19 19 22 23 24 26 24 25 25 19 18 22 23 22 21 22 21 20 20 20 23 25 27 27 26
10 10 8 9 9 9 6 3 4 7 7 8 7 6 6 7 8 9 10 11 10 10 9 8 8 6 4 3 3 3 3 3 3 3 4 4 4 4 4 5 6 6 6 6 6 7 7 7 7 8 9 9 10 11 11 9 10 11 12 13 15 17 18 19 19 22 25 26 28 26 27 28 21 18 21 23 24 23 23 20 19 20 21 23 26 28 27 26
8 9 9 9 10 12 11 6 5 9 9 7 6 6 7 8 9 9 10 10 10 9 8 7 6 5 3 3 3 3 3 3 4 4 4 4 5 5 5 7 8 7 7 6 6 7 8 8 7 8 9 10 10 11 11 10 10 11 13 15 17 18 20 21 21 24 25 26 27 28 30 29 21 19 22 24 26 27 24 19 18 20 21 23 28 29 27 27
7 8 9 10 10 11 12 10 9 11 10 7 6 7 8 9 9 9 9 10 10 9 7 6 6 4 2 3 3 3 3 3 3 4 4 4 4 5 6 6 8 9 9 8 8 8 9 9 8 9 9 10 10 10 10 10 11 13 15 17 19 21 22 22 24 26 24 25 27 28 30 29 23 21 22 23 26 28 23 18 18 20 21 24 28 28 26 27
7 6 7 9 11 10 11 11 11 12 9 7 7 8 9 9 9 9 9 9 9 9 6 6 6 3 3 3 3 3 3 3 3 3 4 4 4 5 6 6 7 9 9 9 9 9 10 9 8 8 9 9 10 11 11 12 14 15 16 18 20 23 24 23 26 26 24 28 28 27 28 28 24 21 21 22 26 25 19 15 16 19 21 24 27 27 26 26
7 6 6 8 10 10 10 10 11 10 8 8 9 9 9 9 10 9 8 8 8 8 6 6 6 4 4 4 3 2 2 2 3 3 3 5 5 6 7 6 7 9 9 9 9 10 10 9 7 8 9 10 12 13 13 14 16 17 18 19 20 24 25 26 27 25 27 32 28 25 26 26 25 23 20 21 22 18 14 13 15 18 20 23 25 25 25 26
8 6 6 8 10 10 10 10 9 9 10 10 10 10 9 9 9 8 7 7 7 7 6 7 7 5 5 4 3 2 1 2 2 2 3 4 6 6 7 7 8 9 10 10 9 10 9 8 8 9 10 11 14 14 14 16 17 19 19 20 21 23 27 28 27 27 32 33 28 24 25 26 25 20 16 16 15 12 11 13 15 17 19 22 23 24 26 27
10 8 7 7 9 10 10 8 7 8 11 11 11 10 9 8 7 7 7 7 7 7 7 8 8 7 6 5 4 2 1 1 0 1 2 4 5 6 7 7 8 9 11 10 10 11 10 9 9 11 12 12 14 16 16 17 19 20 20 21 22 23 28 28 27 32 34 34 31 24 25 28 21 13 12 12 10 9 12 14 15 18 19 21 23 25 27 28
11 8 6 5 6 9 10 9 7 8 11 12 11 11 10 8 6 6 7 6 6 6 7 8 8 8 7 6 5 3 2 1 2 1 2 4 5 6 6 7 8 8 10 10 11 11 10 10 12 12 13 13 15 17 17 18 19 21 21 21 21 23 27 28 30 34 32 33 30 24 28 28 15 11 13 10 9 11 13 16 16 19 21 22 24 26 28 29
11 9 8 5 4 8 10 10 9 8 11 12 11 10 9 7 6 6 6 6 6 6 7 8 9 9 8 7 6 4 4 3 3 2 2 4 5 6 6 7 8 8 9 10 11 10 10 12 13 13 13 13 15 17 18 19 20 21 20 19 20 23 26 28 33 35 32 29 23 25 31 20 11 17 16 9 10 13 15 18 18 20 22 24 25 26 28 31
11 10 10 7 5 8 9 9 10 8 9 10 9 9 7 6 6 5 5 5 6 7 9 10 10 11 10 9 8 6 5 5 5 3 3 4 6 6 7 7 8 9 9 10 11 11 10 12 13 13 13 12 14 17 18 19 22 22 20 19 21 25 26 29 33 35 32 24 20 25 20 10 16 20 12 10 11 12 16 20 19 21 23 25 26 27 29 31
10 8 9 9 8 8 8 8 7 7 8 8 7 7 6 5 4 4 3 5 7 9 10 10 10 11 10 10 9 9 8 7 6 5 5 5 6 7 7 7 8 9 9 10 11 11 11 13 13 14 13 11 13 16 17 19 22 22 21 21 23 25 27 29 32 32 25 19 22 22 9 11 26 23 11 13 12 12 17 20 21 22 23 25 27 29 31 32
11 9 9 9 8 8 8 7 6 7 7 7 7 7 6 4 2 2 3 5 6 9 12 12 11 10 9 9 9 9 8 7 7 7 7 7 7 8 8 8 9 10 10 10 11 12 12 13 13 14 13 11 13 15 17 20 21 22 22 22 23 25 26 29 31 28 23 23 23 18 10 12 23 25 20 15 12 14 17 20 23 23 23 26 28 30 33 34
12 10 9 8 7 7 6 6 6 7 7 6 6 6 5 2 1 3 3 3 3 7 11 13 14 12 11 11 10 10 9 9 8 7 8 8 9 9 9 10 10 11 11 11 12 13 13 13 13 14 12 11 14 15 17 20 20 22 23 22 24 24 26 28 28 25 23 21 15 10 9 7 18 30 24 13 15 17 17 21 24 24 25 27 29 32 35 36
12 10 8 7 6 5 4 5 5 6 7 7 6 6 4 2 2 4 3 1 3 6 8 10 12 13 14 13 12 12 11 10 10 10 10 10 10 11 11 11 12 12 12 12 13 13 14 14 14 14 12 12 14 15 17 19 20 21 22 22 23 24 26 25 24 22 18 14 8 5 6 4 18 34 20 9 18 18 17 24 25 26 29 30 31 33 36 39
12 9 7 6 5 3 3 3 4 5 7 8 8 8 6 4 4 3 1 3 5 7 8 9 10 11 12 13 13 14 13 12 12 13 12 12 12 12 13 14 13 13 13 14 14 13 15 15 14 14 12 13 15 15 16 19 20 21 21 23 23 23 24 21 20 18 10 7 3 2 7 5 10 26 18 10 18 17 18 25 27 30 33 33 34 34 38 42
13 9 7 5 4 2 2 2 3 4 7 9 11 11 8 7 6 2 1 4 7 8 8 9 11 12 13 12 12 14 14 14 14 14 14 14 14 14 14 14 14 14 15 14 14 15 16 14 14 14 13 14 16 15 16 19 20 21 22 24 22 19 17 13 11 8 2 4 2 2 12 9 10 19 18 14 19 18 18 25 29 32 35 36 38 36 39 43
13 9 5 4 3 1 2 3 4 6 8 10 11 11 10 8 7 7 7 7 6 5 6 8 10 12 13 13 13 14 15 15 16 16 16 16 16 16 16 15 15 15 14 14 16 18 17 15 15 14 13 15 15 14 17 19 19 22 23 20 15 12 10 5 4 3 3 5 5 7 12 14 21 24 21 21 23 17 17 26 31 33 36 39 39 39 40 43
12 9 5 4 2 2 4 5 6 8 9 11 11 11 11 7 5 7 10 9 7 8 11 12 13 13 13 15 16 15 16 17 18 18 18 18 18 18 17 17 17 15 15 16 19 18 15 14 14 12 13 14 15 16 18 18 20 24 21 14 9 4 4 4 4 3 6 7 9 14 14 15 23 27 28 25 20 14 18 27 31 33 37 40 41 39 41 43
13 11 7 4 3 4 6 7 8 10 10 11 11 11 11 9 7 8 10 10 11 12 14 15 16 15 14 16 16 16 16 17 18 18 18 19 19 18 18 18 18 17 17 18 16 13 11 12 12 12 14 16 17 18 18 20 22 21 16 13 9 2 1 4 3 2 8 12 15 16 11 11 22 32 32 20 14 17 23 27 30 34 37 40 41 39 41 43
13 12 9 5 5 6 8 9 10 11 11 11 11 12 13 11 10 11 12 12 13 15 16 17 18 17 16 16 17 17 16 16 17 18 18 19 19 20 21 20 19 18 17 14 13 12 11 11 11 15 19 20 19 17 18 20 18 15 16 16 12 6 6 8 9 10 13 13 13 10 10 19 36 42 28 13 15 22 24 27 29 33 37 38 39 39 41 42
12 13 10 7 7 8 9 10 11 12 12 12 13 14 15 13 12 12 13 15 16 18 19 19 17 15 14 13 13 14 15 15 17 19 19 19 20 20 19 18 18 17 16 16 15 12 9 10 14 20 22 21 18 17 18 19 16 16 19 18 14 12 10 9 10 13 9 6 8 8 14 31 41 38 27 19 22 25 24 28 30 33 37 37 37 40 41 42
11 12 11 9 9 10 11 11 11 12 13 13 14 15 15 15 14 15 16 17 18 18 19 18 15 12 11 12 12 13 14 14 15 16 17 17 16 15 14 15 16 16 16 18 16 14 15 18 21 21 20 19 17 17 20 21 20 20 20 19 16 12 8 6 5 6 3 3 7 8 14 31 32 27 34 37 33 32 28 28 33 37 37 36 38 41 41 43
10 11 10 10 10 11 12 11 11 12 13 14 15 15 15 15 15 15 16 17 17 18 18 16 13 13 13 14 15 16 15 15 15 16 17 17 14 14 14 15 16 17 18 18 16 16 18 20 19 18 17 18 18 20 22 23 21 19 19 20 17 10 7 6 3 4 3 3 6 5 8 27 35 31 39 44 39 37 33 31 37 39 36 38 41 42 43 44
10 10 10 10 11 12 11 11 11 12 13 14 14 14 14 14 14 14 15 17 17 18 17 14 12 13 15 16 17 18 18 18 18 19 18 15 14 16 18 18 19 18 18 18 16 18 18 15 15 18 20 20 21 22 22 22 21 20 21 21 19 14 12 10 6 4 3 2 7 5 1 21 42 42 42 42 38 38 38 39 41 38 37 41 44 45 46 47
9 9 10 11 11 11 10 10 11 11 12 13 12 12 13 14 14 15 16 17 17 17 16 15 15 15 17 18 18 18 20 20 20 20 18 17 19 20 19 17 18 18 18 17 17 19 19 16 16 21 24 23 23 22 23 25 23 22 24 23 21 16 13 13 12 13 10 4 3 3 2 27 50 48 42 41 38 39 41 43 43 40 41 45 47 50 52 53
8 10 11 11 10 10 9 10 10 10 11 11 11 12 13 14 15 16 16 17 17 17 16 17 17 17 19 19 18 20 20 21 21 20 19 20 20 18 16 16 18 19 19 20 20 20 19 18 21 26 28 25 24 25 27 29 26 25 25 24 23 19 14 11 9 14 15 10 10 5 6 35 55 46 40 41 39 40 43 43 44 43 45 50 52 54 56 57
9 10 10 9 8 8 8 9 9 10 11 11 11 12 13 15 16 16 17 18 18 18 18 17 17 17 18 18 18 19 19 21 21 19 19 19 18 17 18 19 20 21 21 22 21 21 19 20 24 28 28 25 25 26 25 24 22 21 21 22 21 19 18 14 9 14 14 14 20 11 7 36 54 42 39 43 42 43 43 41 43 46 51 56 57 57 58 57
9 9 8 8 7 8 8 8 8 10 11 11 12 13 14 15 16 17 17 17 17 17 17 16 17 17 17 18 18 18 19 20 19 17 17 18 19 19 19 20 20 20 21 21 20 20 18 17 22 28 30 27 24 22 19 18 18 19 21 24 21 20 23 21 21 25 19 19 25 10 6 35 51 43 41 44 43 42 39 38 44 51 56 59 59 60 60 58
7 7 7 7 7 7 7 8 8 9 11 11 12 13 14 15 16 16 16 16 16 16 16 17 17 17 18 18 18 18 18 17 16 16 17 19 20 19 19 20 20 19 20 20 20 21 18 16 20 23 22 20 18 16 15 18 21 24 27 26 24 25 26 25 28 27 21 25 28 11 12 39 50 45 44 43 40 39 39 42 49 53 57 59 61 62 61 60
6 6 6 6 6 7 7 8 9 10 10 11 12 13 14 14 14 15 15 15 16 16 16 17 17 17 17 17 17 18 17 17 17 18 19 19 19 19 19 20 20 20 21 21 23 23 21 21 22 18 10 9 13 16 21 27 28 29 31 29 30 32 29 27 27 22 18 25 25 18 27 50 53 48 46 43 40 44 48 52 54 54 57 60 61 63 63 62
6 6 6 6 7 7 7 8 9 9 10 11 13 13 12 13 14 15 15 15 15 15 15 15 16 16 16 16 16 17 17 17 17 18 19 19 19 19 19 20 20 21 21 22 23 23 24 25 24 22 19 20 24 28 31 34 34 34 36 35 35 35 32 29 26 26 28 28 29 31 41 52 54 51 47 45 47 53 57 58 57 58 60 62 63 64 64 63
6 6 6 7 7 6 7 8 9 10 11 12 13 13 13 13 14 15 15 14 14 15 15 14 14 14 14 15 16 17 17 17 17 19 20 20 20 20 20 21 22 22 22 22 22 22 24 27 26 26 27 28 31 33 32 32 35 37 36 35 33 32 33 31 28 32 34 27 28 37 41 45 50 49 45 49 55 58 59 59 60 62 63 65 65 64 64 63
6 6 7 7 7 7 8 9 9 10 11 12 13 13 13 13 14 14 14 14 14 14 14 14 14 14 15 15 16 17 17 18 18 20 20 20 21 21 21 22 22 22 22 21 21 22 24 27 29 28 29 30 31 32 31 31 32 32 32 33 32 29 29 28 26 29 30 27 30 40 42 42 44 45 48 55 58 58 60 60 61 64 66 66 66 65 65 64
6 7 7 7 8 8 8 9 9 10 11 12 12 13 12 13 13 14 14 14 14 14 14 14 14 14 15 15 16 17 17 18 19 20 20 21 21 21 22 22 21 22 22 21 23 24 24 26 28 29 31 32 30 29 30 28 27 30 31 29 24 21 21 22 25 27 26 29 35 41 43 40 38 44 54 58 56 57 60 60 62 66 67 67 66 65 65 65
7 7 8 7 7 8 8 9 10 10 11 12 12 12 13 13 13 13 14 14 14 14 14 14 14 14 15 15 16 16 17 18 19 20 20 21 21 21 22 23 23 24 24 25 26 25 24 26 28 30 33 32 29 27 26 26 30 33 27 20 18 21 24 24 29 34 33 36 40 41 40 39 41 50 57 57 56 60 60 61 65 68 69 67 65 64 65 66
7 7 8 7 7 8 8 9 10 11 11 12 12 12 13 13 13 13 13 13 13 12 13 13 14 14 15 15 16 16 17 18 18 19 20 21 22 22 22 23 24 25 25 26 27 26 26 27 28 28 30 31 30 26 26 31 32 24 18 19 20 25 29 28 31 35 36 40 43 40 36 40 49 58 60 60 61 62 62 63 66 68 68 66 65 65 66 68
6 7 7 7 7 8 9 10 11 11 11 12 12 12 12 12 12 13 13 12 12 12 13 13 14 14 14 15 15 16 16 18 18 19 20 21 21 21 21 23 23 24 25 25 25 26 26 26 28 25 24 29 30 26 31 32 20 10 15 21 23 28 32 33 34 33 34 39 39 34 35 45 57 62 63 66 67 66 65 65 66 66 65 63 65 67 68 68
Wind_Direction
116 120 125 126 119 110 105 98 93 89 81 70 66 71 90 113 132 143 137 134 141 144 144 146 147 144 133 129 131 130 135 142 136 125 114 101 100 106 106 100 94 87 78 70 61 52 43 26 355 327 312 302 295 283 286 287 281 273 268 270 271 276 278 278 277 272 273 274 271 269 273 284 291 292 291 289 291 294 300 307 312 318 321 324 325 326 331 335
121 122 125 123 114 105 104 103 94 86 80 67 60 59 63 93 128 145 142 142 148 147 152 155 148 140 130 127 128 129 138 144 130 111 101 102 110 112 103 95 89 85 76 68 58 45 32 14 351 335 319 308 311 306 300 290 282 274 271 275 277 280 280 275 272 268 270 272 270 273 280 287 289 289 287 284 286 292 301 308 314 319 322 325 327 330 334 336
129 128 128 122 111 102 101 99 91 82 77 68 63 54 45 69 130 148 151 151 149 152 164 159 142 131 126 127 131 135 145 142 121 106 106 112 114 109 101 93 85 81 74 63 49 31 13 357 343 336 324 316 320 312 299 287 282 278 276 280 280 282 277 270 266 264 270 274 276 281 282 283 286 288 286 283 284 292 301 308 315 319 323 326 329 333 334 335
136 134 131 125 114 103 99 99 95 86 76 69 62 54 54 91 161 186 165 150 142 158 161 143 126 121 125 135 143 145 146 140 116 106 112 115 109 98 92 88 77 71 67 56 39 17 1 352 340 330 322 321 324 315 297 286 286 284 279 274 276 279 275 269 266 266 273 279 281 281 279 280 287 291 288 282 284 292 301 308 315 320 325 329 332 333 333 335
141 137 133 131 124 115 110 105 102 95 81 58 51 91 99 41 239 219 184 155 151 160 148 135 127 124 127 127 131 128 130 134 117 110 116 109 95 82 72 67 59 53 48 41 23 2 353 347 336 326 321 324 327 315 293 289 291 285 277 272 275 277 273 272 270 271 276 281 281 278 277 282 289 294 288 280 283 291 299 306 314 322 328 331 331 332 332 334
153 143 136 133 136 134 127 114 106 99 91 64 63 152 212 281 245 229 210 189 185 171 146 139 132 128 129 126 127 122 122 134 122 113 110 97 84 73 62 52 38 24 17 12 358 351 349 345 339 328 325 328 327 312 295 296 294 281 278 280 281 281 278 277 277 279 281 284 285 281 280 284 291 296 288 282 283 287 295 304 314 324 329 330 330 330 332 334
174 159 145 134 145 149 149 136 119 105 99 81 230 188 261 259 235 230 221 198 199 184 162 156 150 145 142 140 146 129 116 124 119 110 101 92 82 73 65 50 27 6 356 350 348 352 348 344 339 327 328 327 320 316 305 300 295 285 284 286 285 286 284 285 289 292 292 292 294 290 285 286 292 292 290 289 283 282 292 302 312 323 329 330 330 330 332 335
198 183 160 141 157 163 170 152 130 124 107 105 232 231 270 253 230 223 206 180 182 173 163 170 165 148 133 138 146 128 117 118 114 106 99 91 84 78 66 49 24 1 350 343 342 352 347 339 337 330 332 322 314 318 309 299 299 296 290 291 291 289 291 297 301 302 301 300 299 298 293 292 293 289 292 295 282 279 290 299 308 320 328 330 330 331 333 334
213 205 178 161 165 169 168 157 149 135 94 232 228 241 257 243 225 213 193 181 177 164 157 162 152 137 134 141 138 125 118 116 110 104 98 91 89 81 64 46 21 4 352 341 339 351 345 337 338 333 334 324 317 319 310 302 307 309 301 300 302 299 303 307 306 306 306 304 302 302 299 297 297 292 296 298 281 277 287 295 303 317 328 330 330 332 332 332
216 215 199 187 175 174 162 122 140 116 119 228 233 247 244 230 223 204 192 188 179 166 160 157 147 143 146 141 131 124 115 109 106 96 91 90 86 73 60 42 19 11 356 341 342 356 347 339 336 332 338 330 328 324 312 311 317 318 312 309 312 311 314 315 314 313 312 310 306 305 304 303 300 296 299 294 278 275 284 292 302 314 326 330 330 331 330 330
214 211 209 203 193 189 184 133 126 125 209 238 247 246 231 225 219 195 191 187 174 161 156 152 147 144 145 137 128 123 106 99 97 90 87 80 72 66 51 34 26 14 358 347 350 1 352 340 329 333 341 330 332 327 315 321 323 320 314 314 318 316 320 323 321 319 317 314 310 309 307 303 300 300 301 292 279 278 284 292 301 311 322 328 329 329 328 328
208 204 202 206 207 208 228 235 190 174 236 257 257 232 216 222 214 196 188 178 169 161 157 154 145 135 134 130 124 116 99 89 87 86 81 69 67 57 36 32 25 7 357 349 356 6 352 336 327 333 338 330 333 328 322 325 321 318 314 316 321 322 326 328 325 321 320 316 312 312 307 303 302 302 303 297 288 284 287 293 299 306 318 325 327 327 327 327
202 199 191 194 206 213 234 248 219 205 247 267 255 226 216 223 212 198 189 181 176 170 166 160 148 140 142 137 124 110 93 83 82 82 74 61 60 49 37 31 20 9 359 347 1 6 343 331 327 328 336 339 338 331 329 323 315 318 318 321 326 326 330 330 325 322 320 314 310 309 304 303 304 301 303 299 292 288 289 292 295 300 313 323 326 326 327 326
199 196 189 183 187 200 228 242 215 219 254 268 256 231 224 224 212 200 196 192 183 173 164 154 150 154 156 146 122 103 92 86 80 77 66 52 48 48 40 27 17 13 360 350 2 356 335 329 326 328 339 343 339 334 333 319 314 322 321 326 327 325 329 330 326 323 319 311 308 304 298 302 306 304 307 302 295 294 292 292 292 296 308 321 325 325 327 326
201 196 190 190 184 182 211 224 219 243 265 268 256 237 226 221 211 201 201 196 177 163 154 147 153 154 148 138 114 102 101 90 76 67 56 45 36 36 33 20 15 11 358 350 354 345 335 332 325 329 339 341 337 334 333 319 319 326 321 324 325 323 328 330 325 321 319 312 308 302 294 301 310 310 309 303 301 300 297 296 293 293 303 319 326 326 326 326
204 196 189 194 194 195 206 215 243 258 265 261 249 237 225 213 205 201 204 195 173 160 154 151 157 150 144 146 121 109 108 86 72 62 47 37 26 19 13 9 10 5 354 350 346 335 334 334 324 331 338 336 331 330 335 330 325 326 320 323 325 324 326 328 323 320 320 315 311 305 296 302 313 311 306 304 305 301 300 300 291 290 300 315 325 327 326 326
203 195 192 195 195 203 212 216 247 258 254 243 233 224 216 207 199 198 200 191 176 167 162 162 161 154 158 161 134 117 108 85 73 63 43 34 22 12 1 1 1 353 350 353 345 331 336 336 327 335 334 323 322 327 336 333 325 325 323 326 327 324 326 327 325 323 321 318 316 310 302 304 312 309 307 309 306 301 304 302 289 290 300 311 323 326 326 329
206 195 195 199 200 201 207 213 233 248 242 226 217 210 206 205 200 198 198 192 185 178 174 175 168 159 166 163 147 122 104 91 77 61 47 35 19 11 4 357 353 349 351 351 344 336 339 337 329 333 325 313 319 325 330 328 325 327 326 328 327 325 327 329 327 325 321 318 318 314 306 304 308 311 314 312 303 301 308 302 288 294 301 309 321 326 329 332
208 198 192 199 202 199 203 210 222 233 226 212 211 201 197 203 203 202 200 195 190 184 181 181 177 176 184 174 156 133 116 99 75 59 47 32 17 10 3 354 350 352 352 346 344 340 337 333 322 320 315 310 320 324 327 329 329 328 324 327 327 325 328 331 327 323 320 318 318 317 310 303 308 319 320 307 297 301 310 298 292 302 306 312 322 328 333 336
205 204 198 196 200 201 202 206 216 220 210 206 206 196 198 205 204 203 203 200 194 190 188 190 192 192 187 184 172 157 128 98 72 46 36 26 16 5 360 354 348 352 353 346 345 338 332 327 313 308 311 320 330 329 330 333 332 329 324 325 326 325 327 330 327 324 323 320 321 322 309 302 314 321 311 297 295 304 308 301 306 312 312 318 326 332 336 338
207 209 200 195 200 202 201 209 217 213 203 204 202 198 203 204 201 206 208 204 201 205 206 200 202 200 192 196 192 182 148 108 68 30 27 19 11 3 357 352 347 351 353 347 343 337 328 321 312 308 315 327 335 334 332 333 334 331 326 324 324 323 324 328 327 327 326 320 321 321 306 308 320 318 303 297 302 311 310 316 322 320 321 326 332 336 338 340
205 209 204 199 204 203 204 215 226 217 204 201 200 199 200 200 204 212 213 216 221 224 215 205 209 212 209 211 206 200 183 148 65 3 19 11 2 357 353 350 349 348 348 345 340 336 327 320 315 312 316 325 333 336 334 333 335 333 328 323 321 321 323 326 327 328 326 320 320 320 310 316 324 319 311 309 314 322 323 333 332 326 330 334 337 338 337 339
197 208 205 194 211 215 214 220 229 216 197 195 198 196 198 204 212 215 213 219 222 217 211 211 219 222 222 221 223 229 222 224 246 271 4 360 345 343 346 349 347 342 343 343 339 334 327 325 322 317 318 321 328 335 334 333 334 331 327 320 316 321 324 324 325 326 324 320 320 318 316 320 325 331 326 318 327 332 335 342 337 333 336 337 339 338 336 337
186 199 196 183 224 223 212 218 228 214 194 196 199 198 204 208 210 212 211 218 220 216 216 219 226 229 229 231 236 244 242 247 259 287 349 340 328 329 339 345 341 336 336 338 338 333 327 329 328 323 318 318 326 333 333 332 331 329 326 319 315 320 322 321 323 324 322 321 319 321 323 322 324 332 328 318 330 332 338 345 340 336 338 338 339 337 335 336
180 201 199 186 217 213 198 211 224 213 199 201 202 204 207 201 204 209 213 232 233 227 227 228 234 235 236 244 247 250 258 261 268 290 312 315 317 317 328 334 331 332 329 329 336 332 329 331 329 325 318 315 324 330 330 329 328 328 326 320 318 319 319 321 323 323 323 321 320 326 329 312 313 327 323 310 321 327 337 343 339 338 338 336 338 337 337 337
178 198 188 176 194 193 183 198 207 194 189 192 196 199 195 190 198 210 242 271 258 239 236 235 238 237 240 249 249 251 266 268 266 281 290 297 306 307 315 319 320 326 322 324 332 330 328 327 326 326 319 310 320 326 327 328 328 326 324 321 319 318 318 321 321 320 320 315 316 321 314 287 309 326 328 309 315 322 332 339 336 336 337 336 338 339 339 338
171 177 169 169 181 177 176 186 178 167 169 176 184 184 184 187 183 236 284 304 274 242 237 237 238 238 242 249 248 248 262 271 269 277 278 282 296 300 303 310 314 319 319 319 323 326 326 323 323 325 316 306 314 320 323 327 327 324 323 321 318 317 317 319 318 315 311 310 314 314 301 282 298 321 328 308 306 318 325 335 335 334 335 335 339 341 340 340
167 167 164 166 169 169 177 180 171 171 177 186 190 183 190 206 252 283 301 340 285 247 239 239 240 243 249 253 251 247 258 273 272 274 278 280 288 295 300 307 308 311 315 311 310 320 323 319 321 322 314 305 307 314 321 326 326 323 323 320 318 316 315 316 313 308 309 312 315 310 315 287 286 314 326 305 305 317 321 332 335 334 335 335 340 343 343 341
165 162 162 162 164 172 175 174 181 193 204 215 214 208 221 245 275 290 299 318 282 261 244 242 244 246 252 255 252 250 260 270 268 273 283 282 287 294 297 302 304 304 309 307 305 314 319 317 317 317 312 304 305 310 317 324 325 323 322 319 317 314 314 315 308 306 309 306 298 292 327 321 297 313 324 304 310 314 318 334 338 336 337 336 339 343 344 343
167 163 165 163 163 175 177 187 203 218 231 237 236 235 246 260 270 295 300 265 282 276 257 253 251 250 257 261 255 253 261 269 270 276 282 283 288 294 295 299 301 298 303 307 302 306 313 312 310 312 310 306 308 307 312 323 324 323 323 320 318 315 316 312 300 304 311 296 263 229 323 338 301 315 323 311 316 315 319 337 342 339 339 337 337 340 342 343
172 169 172 173 169 174 199 229 244 260 261 255 250 248 253 265 268 247 193 275 289 287 277 271 264 261 267 270 261 258 264 270 273 276 279 284 288 292 295 297 299 300 304 304 300 305 310 307 306 310 306 307 310 303 308 321 324 325 325 323 323 322 320 307 287 298 296 284 267 256 318 310 262 301 319 318 322 318 317 336 343 341 341 338 336 336 338 341
181 181 183 188 191 221 280 287 295 295 281 268 261 256 257 265 264 246 253 283 296 296 306 310 296 280 272 272 271 269 270 272 275 277 280 284 287 291 293 292 296 301 303 302 302 306 306 303 305 306 304 310 310 302 309 317 323 326 324 327 333 333 335 319 272 281 236 255 276 287 316 298 272 294 320 325 325 315 314 333 339 340 342 339 336 335 336 339
190 193 196 199 223 281 293 303 304 296 286 276 268 263 259 255 257 261 268 277 283 297 310 315 313 301 283 275 276 277 276 276 278 279 281 284 286 289 289 290 295 296 295 300 306 306 305 305 308 306 307 314 310 305 309 312 321 324 322 330 341 354 5 324 285 302 278 266 281 290 305 296 285 308 327 327 328 325 325 335 335 336 340 337 334 334 335 337
196 201 208 223 272 295 298 304 299 292 285 277 272 267 255 241 250 275 283 284 286 300 311 314 313 306 291 281 280 282 283 282 282 282 283 286 288 289 290 291 293 291 292 299 304 302 297 300 307 309 311 314 311 306 306 309 317 321 319 324 324 305 228 283 266 287 294 296 295 289 291 283 293 316 326 328 339 342 336 335 332 333 337 335 333 334 335 336
204 211 221 247 284 297 300 299 293 288 282 277 273 262 250 248 259 274 285 292 298 306 311 314 313 305 293 285 283 284 284 282 284 286 286 288 289 290 291 290 289 289 290 294 299 298 288 286 300 309 311 313 310 302 303 309 314 317 315 313 306 288 261 260 264 274 284 303 302 271 258 287 303 316 326 336 342 345 344 337 331 333 336 335 333 334 335 336
216 224 234 255 280 292 294 292 290 286 281 276 268 258 255 258 264 273 283 294 302 307 309 312 312 306 297 291 288 290 288 284 286 289 290 292 292 291 290 289 287 287 286 288 294 295 283 283 299 308 309 310 307 301 303 307 307 306 308 305 298 295 284 264 270 281 282 295 293 255 272 301 311 319 330 337 333 340 343 336 334 337 337 335 333 334 335 334
225 231 237 253 275 287 291 292 291 286 280 272 262 260 263 265 268 276 286 295 303 307 309 310 308 301 295 294 295 297 297 293 293 294 295 299 298 293 292 290 289 288 287 289 290 287 284 290 299 305 307 307 308 304 302 304 302 300 300 300 299 299 290 263 269 302 311 272 275 251 278 301 305 311 327 334 332 333 332 329 334 337 335 334 334 334 334 333
227 230 239 258 279 289 292 292 289 283 277 268 262 263 267 270 276 284 290 298 305 308 309 306 300 294 291 292 295 297 298 297 298 298 299 300 294 291 295 295 294 292 290 291 289 285 291 298 301 303 305 308 308 305 304 305 303 299 297 297 295 287 274 265 260 309 321 289 289 262 271 297 296 298 319 332 336 336 333 330 333 335 334 334 334 333 331 329
227 233 252 274 286 290 291 287 282 278 272 268 267 269 271 277 284 289 295 300 304 306 307 303 297 295 294 295 297 297 297 297 297 298 298 295 289 293 298 296 294 293 293 293 289 288 293 295 295 300 304 306 306 305 304 305 303 300 298 295 289 278 269 267 243 234 266 266 293 306 248 296 301 304 315 330 339 341 338 335 334 335 334 333 332 330 328 326
235 253 271 282 285 286 285 279 276 277 275 275 276 276 281 286 289 292 296 300 302 303 303 302 299 295 294 297 296 297 297 296 297 297 294 291 292 298 300 296 296 297 297 296 292 292 294 286 285 296 302 303 306 307 303 301 300 296 295 293 287 281 273 274 265 251 250 219 265 332 263 289 301 309 317 329 339 338 338 337 335 334 331 330 330 329 328 327
257 272 280 283 282 282 280 277 277 279 280 283 286 286 288 289 291 295 296 297 298 297 297 299 299 295 294 295 295 296 296 295 297 298 294 294 297 298 298 298 301 301 299 297 295 295 294 285 283 291 298 302 305 305 301 300 299 296 296 292 287 283 274 274 276 258 246 231 251 265 268 290 302 315 324 332 336 333 337 337 331 330 329 329 330 330 329 330
273 279 281 281 281 281 280 278 281 283 284 288 290 290 291 291 293 297 297 297 297 296 297 298 299 298 295 295 296 297 297 296 298 297 295 297 299 298 299 302 304 302 300 299 297 296 294 288 287 291 298 304 304 305 304 302 302 300 299 294 290 287 277 265 266 274 264 250 262 259 247 289 305 322 329 331 332 332 336 334 327 327 328 330 332 332 332 332
275 278 279 279 277 278 281 283 287 287 288 292 293 292 294 294 296 299 299 300 299 300 301 301 301 300 297 299 300 299 300 300 299 298 298 300 302 302 304 305 305 304 302 299 298 299 298 292 291 296 302 305 305 307 307 304 306 305 302 300 296 294 291 282 273 277 277 263 268 266 234 286 307 326 329 330 334 333 335 332 327 328 329 332 334 333 332 331
274 273 275 275 273 278 284 289 292 291 292 296 297 297 299 299 300 302 302 303 303 303 303 302 302 300 300 302 301 301 303 301 297 298 300 302 304 305 306 305 305 305 303 300 298 299 297 291 292 300 310 316 315 314 310 305 305 302 301 300 298 297 297 291 281 276 273 268 270 257 253 286 308 325 329 335 339 334 334 332 330 330 330 333 334 332 332 330
270 273 275 274 278 287 291 292 292 294 297 301 302 304 304 305 307 307 305 306 305 305 305 304 303 303 304 304 302 303 303 299 297 299 303 305 305 305 305 304 305 304 303 302 300 298 293 287 289 291 294 303 303 304 307 307 304 301 300 300 300 300 296 291 284 271 264 272 265 246 270 293 312 327 333 341 341 334 334 333 331 332 332 334 334 332 331 330
269 278 283 287 293 296 295 295 297 300 304 306 308 312 314 314 313 310 310 310 309 309 308 307 308 308 308 306 306 305 305 304 302 302 305 307 305 305 304 303 305 304 303 302 300 297 291 289 292 287 278 283 293 301 306 305 303 303 303 303 303 303 300 293 279 266 270 276 269 271 286 299 314 329 337 342 339 335 334 333 333 334 335 335 334 332 331 329
273 280 287 296 302 301 300 301 302 306 309 310 313 317 319 318 315 314 314 314 313 313 311 311 313 311 309 309 308 307 308 309 306 305 307 308 307 307 305 306 306 304 303 301 299 297 293 293 297 293 290 296 303 306 307 304 303 304 306 309 311 311 306 296 286 286 289 280 279 297 305 303 313 331 341 339 337 335 333 332 332 334 336 335 333 331 329 327
280 284 290 298 301 301 303 304 305 307 311 312 314 318 319 318 317 317 317 316 316 315 314 315 314 310 310 310 309 310 312 311 309 310 312 311 311 309 307 307 306 303 304 302 301 301 296 296 300 298 299 306 308 310 311 306 305 307 311 318 321 321 316 309 312 315 302 279 289 314 317 308 319 338 340 335 335 333 330 331 332 334 336 334 331 330 327 325
283 287 293 299 301 302 302 304 306 309 311 313 315 317 319 319 318 318 317 316 316 316 316 317 315 313 315 314 312 314 313 312 313 314 314 312 310 309 308 308 306 306 307 305 304 305 298 297 302 302 304 310 313 316 315 312 312 314 320 329 335 340 341 335 340 342 321 302 312 323 319 317 332 340 335 333 333 329 328 330 331 334 335 332 330 328 325 324
289 293 297 299 301 302 302 304 307 310 312 313 315 317 319 320 320 320 320 318 319 319 318 319 318 317 317 316 315 314 313 312 313 313 312 310 309 309 308 308 309 309 308 307 305 304 300 299 303 305 305 311 320 322 319 319 317 316 327 349 358 356 356 349 346 346 336 327 329 328 320 323 336 337 331 330 330 328 328 329 331 334 333 330 328 325 324 325
294 296 299 300 300 300 303 306 309 312 313 313 316 319 320 322 323 323 323 323 323 323 321 321 321 320 319 318 315 314 313 313 312 312 312 310 311 312 310 309 310 307 306 307 305 305 305 302 305 307 306 311 322 325 323 322 316 316 343 3 359 354 353 349 346 344 339 335 333 329 324 329 334 333 330 329 329 329 328 328 331 333 331 328 327 327 328 328
295 297 298 300 303 305 307 310 311 314 315 315 319 322 323 326 328 327 327 328 328 327 324 324 323 322 322 319 316 316 315 314 314 314 314 313 313 314 312 309 309 307 308 309 308 309 308 304 307 308 302 309 320 324 324 325 322 334 358 356 351 351 350 346 342 339 338 336 332 328 329 332 332 331 330 330 331 330 328 329 331 332 330 330 330 330 329 327